[[{"header":{"parameterUnit":"m.s-1","parameterCategory":1,"la1":30.2992,"la2":30.254,"lo1":-89.0895,"lo2":-89.0443,"dy":0.0025,"dx":0.0025,"nx":19,"ny":19,"refTime":"2026-05-20T21:00:00:Z","depth":0,"parameterNumber":2,"parameterNumberName":"U-component_of_WINDS"},"data":[0,0,0,-3.8902,-3.8904,-3.902,-3.9021,-3.9171,-3.9173,0,0,0,0,0,0,0,0,0,0,0,-3.8867,-3.8868,-3.8901,-3.8904,-3.902,-3.9021,-3.9171,-3.9173,0,0,0,0,0,0,0,0,0,0,0,-3.8867,-3.8868,-3.8869,-3.8905,-3.902,-3.9021,-3.9171,-3.9082,0,0,0,0,0,0,0,0,0,0,-3.8969,-3.8938,-3.8868,-3.887,-3.8905,-3.902,-3.9021,-3.9078,-3.9088,-3.9119,0,-3.9147,0,-3.9162,-3.9183,-3.9183,0,0,0,-3.8904,-3.893,-3.8961,-3.887,-3.8906,-3.902,-3.8968,-3.9084,-3.9095,-3.9132,-3.9149,-3.9154,-3.9165,-3.9184,-3.9184,-3.9366,-3.9367,0,0,-3.8897,-3.8888,-3.8953,-3.8968,-3.895,-3.8964,-3.8971,-3.909,-3.9108,-3.9149,-3.9158,-3.9167,-3.9185,-3.9186,-3.9365,-3.9367,0,0,0,-3.8879,-3.8884,-3.8912,-3.8962,-3.8983,-3.8967,-3.8976,-3.9102,-3.9112,-3.9159,-3.9169,-3.9186,-3.9187,-3.9365,-3.9366,-3.9399,0,0,0,-3.8875,-3.8873,-3.8909,-3.8905,-3.8981,-3.9044,-3.8985,-3.9104,-3.9118,-3.9168,-3.9186,-3.9189,-3.9364,-3.9365,-3.9396,-3.9416,0,0,0,-3.886,-3.8871,-3.8889,-3.8904,-3.8954,-3.9042,-3.9059,-3.9107,-3.9124,-3.9183,-3.9189,-3.9363,-3.9365,-3.9394,-3.9411,-3.946,0,0,0,-3.884,-3.8916,-3.8889,-3.8978,-3.8953,-3.9063,-3.9058,-3.914,-3.9196,-3.9186,-3.9364,-3.9366,-3.9393,-3.9409,-3.9458,-3.9499,-3.9516,0,0,-3.893,-3.8926,-3.8979,-3.8959,-3.9071,-3.9046,-3.9163,-3.9222,-3.9236,-3.9322,-3.9327,-3.9397,-3.9411,-3.946,-3.9616,-3.9629,0,0,0,-3.9005,-3.9043,-3.9075,-3.9127,-3.9175,-3.9218,-3.926,-3.9283,-3.9356,-3.9278,-3.943,-3.9438,-3.9467,-3.9487,-3.9498,-3.9524,-3.9375,-3.9375,-3.9375,-3.9117,-3.9133,-3.9222,-3.9252,-3.9303,-3.9348,-3.9391,-3.9429,-3.9428,-3.9464,-3.9489,-3.9582,-3.9605,-3.9613,-3.964,-3.9514,-3.9514,-3.9514,-3.9514,-3.925,-3.9305,-3.9306,-3.9392,-3.9408,-3.9481,-3.9529,-3.9526,-3.9597,-3.9564,-3.959,-3.9551,-3.9628,-3.9651,-3.9517,-3.9516,-3.9516,-3.9516,-3.9515,-3.9323,-3.9353,-3.938,-3.9459,-3.9519,-3.9548,-3.9617,-3.9629,-3.9642,-3.9668,-3.9696,-3.9695,-3.9695,-3.9681,-3.9681,-3.9682,-3.9682,-3.9682,-3.9683,-3.9388,-3.9418,-3.9473,-3.9533,-3.957,-3.962,-3.9668,-3.9705,-3.9749,-3.9753,-3.9753,-3.9749,-3.9633,-3.9602,-3.9687,-3.9687,-3.9686,-3.9685,-3.9685,-3.9512,-3.9487,-3.9573,-3.961,-3.9682,-3.9741,-3.9759,-3.9833,-3.9866,-3.9899,-3.9892,-3.9804,-3.98,-3.9791,-3.9766,-3.9888,-3.9888,-3.9888,-3.9888,-3.9573,-3.9573,-3.9665,-3.9724,-3.9783,-3.9808,-3.9906,-3.9946,-3.9983,-4.0005,-3.999,-3.9958,-3.9949,-3.995,-3.9938,-3.9914,-4.0072,-4.0072,-4.0072,-3.965,-3.9657,-3.9737,-3.9773,-3.9832,-3.9882,-3.9975,-4.0043,-4.0081,-4.008,-4.0022,-4.0014,-3.9963,-3.9946,-3.994,-3.9921,-3.9878,0,0]},{"header":{"parameterUnit":"m.s-1","parameterCategory":1,"la1":30.2992,"la2":30.254,"lo1":-89.0895,"lo2":-89.0443,"dy":0.0025,"dx":0.0025,"nx":19,"ny":19,"refTime":"2026-05-20T21:00:00:Z","depth":0,"parameterNumber":3,"parameterNumberName":"V-component_of_WINDS"},"data":[0,0,0,3.7614,3.7613,3.7602,3.7602,3.7577,3.7577,0,0,0,0,0,0,0,0,0,0,0,3.7613,3.7612,3.7614,3.7613,3.7602,3.7602,3.7577,3.7577,0,0,0,0,0,0,0,0,0,0,0,3.7613,3.7613,3.7612,3.7613,3.7602,3.7602,3.7577,3.7589,0,0,0,0,0,0,0,0,0,0,3.7601,3.7597,3.7613,3.7612,3.7613,3.7602,3.7602,3.7589,3.7588,3.7578,0,3.7571,0,3.7574,3.7574,3.7574,0,0,0,3.7615,3.7598,3.7599,3.7612,3.7613,3.7602,3.7608,3.7589,3.7587,3.7576,3.7571,3.757,3.7573,3.7574,3.7574,3.7519,3.7519,0,0,3.7616,3.7608,3.76,3.7598,3.7602,3.7608,3.7607,3.7588,3.758,3.757,3.7569,3.7573,3.7574,3.7574,3.7519,3.7519,0,0,0,3.7616,3.7608,3.761,3.7599,3.7598,3.7608,3.7607,3.7581,3.7582,3.7569,3.7572,3.7574,3.7574,3.752,3.7519,3.7495,0,0,0,3.7617,3.7608,3.761,3.7605,3.7598,3.759,3.76,3.7583,3.7582,3.7573,3.7574,3.7573,3.752,3.752,3.7497,3.7484,0,0,0,3.7615,3.7608,3.7605,3.7604,3.76,3.759,3.7591,3.7583,3.7583,3.7574,3.7573,3.7521,3.752,3.7498,3.7487,3.7469,0,0,0,3.7609,3.7581,3.7605,3.7575,3.76,3.7576,3.7591,3.7573,3.7562,3.7574,3.752,3.7519,3.7499,3.7488,3.747,3.7452,3.7444,0,0,3.7569,3.7576,3.7559,3.758,3.7551,3.7579,3.7545,3.7541,3.7546,3.7527,3.7526,3.7496,3.7487,3.7469,3.7402,3.7395,0,0,0,3.7544,3.7532,3.7526,3.7517,3.7517,3.7515,3.7518,3.7517,3.7502,3.7536,3.7485,3.748,3.7469,3.7461,3.7456,3.7448,3.7515,3.7515,3.7516,3.7473,3.7485,3.7458,3.7469,3.746,3.7466,3.746,3.7459,3.747,3.7458,3.7452,3.741,3.74,3.7396,3.7388,3.7444,3.7444,3.7443,3.7443,3.7416,3.7401,3.7421,3.7402,3.7414,3.7397,3.7401,3.7411,3.7396,3.7415,3.7406,3.7426,3.7389,3.7382,3.7442,3.7442,3.7442,3.7442,3.7443,3.7371,3.7366,3.7368,3.7359,3.735,3.7361,3.7348,3.7358,3.7367,3.7359,3.7355,3.7355,3.7357,3.7357,3.7356,3.7356,3.7356,3.7356,3.7356,3.7323,3.7327,3.7315,3.7315,3.7312,3.731,3.7317,3.7314,3.7312,3.7321,3.7321,3.7333,3.7384,3.7396,3.7354,3.7354,3.7354,3.7355,3.7355,3.726,3.7277,3.726,3.7257,3.7258,3.725,3.7265,3.7258,3.7257,3.725,3.7265,3.7301,3.7308,3.7312,3.7322,3.7263,3.7263,3.7263,3.7263,3.7222,3.7228,3.7214,3.721,3.7207,3.722,3.7199,3.7205,3.7213,3.7213,3.7223,3.7238,3.7242,3.7246,3.7252,3.7261,3.7188,3.7188,3.7188,3.7184,3.7191,3.7172,3.7183,3.7185,3.7187,3.7168,3.7161,3.7173,3.7185,3.7213,3.7216,3.724,3.7247,3.7258,3.7267,3.7285,0,0]}]]